Tracking 28799 objects as of 18-Apr-2024
HD Live streaming from Space Station
objects crossing your sky now

FENGYUN 1C DEB

Track FENGYUN 1C DEB now!
10-day predictions


NORAD ID: 31756
Int'l Code: 1999-025CFF
Perigee: 752.6 km
Apogee: 834.5 km
Inclination: 99.3 °
Period: 100.6 minutes
Semi major axis: 7164 km
RCS: 0.0132 m2 (small)
Launch date: May 10, 1999
Source: People's Republic of China (PRC)
Launch site: Taiyaun Space Center, China (TSC)

Note: This is SATELLITE DEBRIS
Your satellite tracking list
Your tracking list is empty




NASA's NSSDC Master Catalog

Two Line Element Set (TLE):
1 31756U 99025CFF 24096.41622670  .00005190  00000-0  19319-2 0  9996
2 31756  99.3490 169.4163 0057144 157.9402 202.4257 14.31597508518444
Source of the keplerian elements: AFSPC